| time (UTC) | temp F | wind direction | speed knots | gust knots | rain 1hr in | rain 24hr in | rain mn in | humidity % | barometer mb |
| 20260503013327 | 51 | 322 | 0.0 | 0.0 | 0.12 | 0.20 | 0.04 | 90 | 1008.6 |
| 20260503012835 | 51 | 322 | 0.0 | 0.0 | 0.12 | 0.20 | 0.04 | 91 | 1008.7 |
| 20260503012404 | 51 | 322 | 0.0 | 0.0 | 0.12 | 0.20 | 0.04 | 91 | 1008.7 |
| 20260503011830 | 51 | 322 | 0.0 | 0.0 | 0.12 | 0.20 | 0.04 | 90 | 1008.7 |
| 20260503011330 | 51 | 322 | 0.0 | 0.0 | 0.08 | 0.16 | 0.03 | 90 | 1008.7 |
| 20260503010830 | 51 | 322 | 0.0 | 1.7 | 0.08 | 0.16 | 0.03 | 90 | 1008.8 |
| 20260503010329 | 51 | 322 | 0.0 | 1.7 | 0.08 | 0.16 | 0.03 | 90 | 1008.8 |
| 20260503005836 | 51 | 322 | 0.0 | 0.9 | 0.08 | 0.16 | 0.03 | 90 | 1008.8 |
| 20260503005324 | 51 | 322 | 0.0 | 1.7 | 0.04 | 0.12 | 0.02 | 90 | 1008.7 |
| 20260503004851 | 51 | 322 | 0.9 | 1.7 | 0.04 | 0.12 | 0.02 | 90 | 1008.7 |
| 20260503004329 | 51 | 322 | 0.9 | 1.7 | 0.00 | 0.08 | 0.02 | 90 | 1008.8 |
| 20260503003828 | 51 | 322 | 0.0 | 1.7 | 0.00 | 0.08 | 0.02 | 89 | 1008.8 |
| 20260503003329 | 51 | 322 | 1.7 | 1.7 | 0.00 | 0.08 | 0.02 | 89 | 1008.8 |
| 20260503002829 | 51 | 322 | 0.0 | 0.9 | 0.00 | 0.08 | 0.02 | 89 | 1008.6 |
| 20260503002330 | 51 | 322 | 0.9 | 1.7 | 0.00 | 0.08 | 0.02 | 88 | 1008.5 |
| 20260503001850 | 51 | 322 | 0.0 | 1.7 | 0.04 | 0.08 | 0.02 | 87 | 1008.5 |
| 20260503001329 | 51 | 322 | 0.0 | 0.9 | 0.04 | 0.08 | 0.02 | 87 | 1008.5 |
| 20260503000829 | 51 | 322 | 0.0 | 0.9 | 0.08 | 0.08 | 0.02 | 87 | 1008.4 |
| 20260503000329 | 52 | 322 | 0.0 | 1.7 | 0.08 | 0.08 | 0.02 | 86 | 1008.4 |
| 20260502235830 | 52 | 322 | 0.9 | 1.7 | 0.08 | 0.08 | 0.02 | 86 | 1008.5 |
| 20260502235349 | 52 | 323 | 1.7 | 1.7 | 0.08 | 0.08 | 0.02 | 85 | 1008.4 |
| 20260502234829 | 52 | 323 | 0.9 | 1.7 | 0.08 | 0.08 | 0.02 | 84 | 1008.5 |
| 20260502234338 | 52 | 323 | 0.0 | 1.7 | 0.08 | 0.08 | 0.02 | 84 | 1008.5 |
| 20260502233847 | 53 | 323 | 0.9 | 1.7 | 0.08 | 0.08 | 0.02 | 83 | 1008.8 |
| 20260502233336 | 53 | 323 | 0.9 | 4.3 | 0.08 | 0.08 | 0.02 | 81 | 1008.9 |
| 20260502232824 | 53 | 323 | 0.9 | 7.0 | 0.08 | 0.08 | 0.02 | 78 | 1008.9 |
| 20260502232330 | 53 | 304 | 4.3 | 7.8 | 0.08 | 0.08 | 0.02 | 78 | 1009.1 |
| 20260502231839 | 54 | 321 | 4.3 | 7.8 | 0.04 | 0.04 | 0.01 | 76 | 1009.0 |
| 20260502231346 | 55 | 310 | 4.3 | 5.2 | 0.04 | 0.04 | 0.01 | 76 | 1009.2 |
| 20260502230831 | 56 | 306 | 1.7 | 2.6 | 0.00 | 0.00 | 0.00 | 75 | 1009.4 |
| 20260502230332 | 56 | 306 | 0.9 | 6.1 | 0.00 | 0.00 | 0.00 | 74 | 1009.4 |
| 20260502225840 | 57 | 306 | 1.7 | 10.4 | 0.00 | 0.00 | 0.00 | 72 | 1009.5 |
| 20260502225329 | 57 | 283 | 3.5 | 10.4 | 0.00 | 0.00 | 0.00 | 71 | 1009.7 |
| 20260502224837 | 57 | 309 | 2.6 | 7.8 | 0.00 | 0.00 | 0.00 | 70 | 1009.2 |
| 20260502224325 | 58 | 309 | 3.5 | 9.6 | 0.00 | 0.00 | 0.00 | 69 | 1009.0 |
| 20260502223852 | 59 | 306 | 3.5 | 9.6 | 0.00 | 0.00 | 0.00 | 69 | 1008.9 |
| 20260502223332 | 59 | 288 | 5.2 | 9.6 | 0.00 | 0.00 | 0.00 | 65 | 1009.0 |
| 20260502222858 | 60 | 314 | 5.2 | 9.6 | 0.00 | 0.00 | 0.00 | 63 | 1009.1 |
| 20260502222345 | 60 | 304 | 5.2 | 9.6 | 0.00 | 0.00 | 0.00 | 60 | 1008.9 |
| 20260502221851 | 60 | 299 | 4.3 | 7.8 | 0.00 | 0.00 | 0.00 | 60 | 1008.9 |
| 20260502221351 | 60 | 287 | 4.3 | 7.8 | 0.00 | 0.00 | 0.00 | 60 | 1008.8 |
| 20260502220830 | 60 | 277 | 2.6 | 7.0 | 0.00 | 0.00 | 0.00 | 61 | 1008.6 |
| 20260502220329 | 59 | 290 | 0.9 | 6.1 | 0.00 | 0.00 | 0.00 | 61 | 1008.6 |
| 20260502215847 | 59 | 275 | 0.9 | 3.5 | 0.00 | 0.00 | 0.00 | 60 | 1008.5 |
| 20260502215345 | 59 | 275 | 1.7 | 3.5 | 0.00 | 0.00 | 0.00 | 61 | 1008.5 |
| 20260502214824 | 59 | 279 | 0.9 | 3.5 | 0.00 | 0.00 | 0.00 | 61 | 1008.6 |
| 20260502214325 | 59 | 257 | 0.0 | 4.3 | 0.00 | 0.00 | 0.00 | 61 | 1008.5 |
| 20260502213824 | 59 | 259 | 0.9 | 7.0 | 0.00 | 0.00 | 0.00 | 61 | 1008.6 |
| 20260502213324 | 59 | 278 | 1.7 | 5.2 | 0.00 | 0.00 | 0.00 | 61 | 1008.7 |
| 20260502212825 | 59 | 281 | 0.9 | 3.5 | 0.00 | 0.00 | 0.00 | 60 | 1008.7 |
| 20260502212326 | 59 | 281 | 0.9 | 2.6 | 0.00 | 0.00 | 0.00 | 60 | 1008.7 |
| 20260502211827 | 59 | 288 | 0.9 | 3.5 | 0.00 | 0.00 | 0.00 | 60 | 1008.7 |
| 20260502211326 | 59 | 289 | 0.9 | 3.5 | 0.00 | 0.00 | 0.00 | 60 | 1008.7 |
| 20260502210827 | 59 | 246 | 0.0 | 2.6 | 0.00 | 0.00 | 0.00 | 59 | 1008.7 |
| 20260502210348 | 59 | 280 | 0.0 | 5.2 | 0.00 | 0.00 | 0.00 | 60 | 1008.7 |
| 20260502205835 | 59 | 278 | 0.9 | 2.6 | 0.00 | 0.00 | 0.00 | 60 | 1008.7 |
| 20260502205324 | 59 | 263 | 0.9 | 2.6 | 0.00 | 0.00 | 0.00 | 60 | 1008.7 |
| 20260502204825 | 60 | 306 | 0.0 | 2.6 | 0.00 | 0.00 | 0.00 | 60 | 1008.7 |
| 20260502204325 | 60 | 281 | 0.0 | 1.7 | 0.00 | 0.00 | 0.00 | 60 | 1008.7 |
| 20260502203826 | 60 | 287 | 0.0 | 4.3 | 0.00 | 0.00 | 0.00 | 59 | 1008.7 |
| 20260502203327 | 60 | 275 | 0.9 | 4.3 | 0.00 | 0.00 | 0.00 | 59 | 1008.7 |
| 20260502202827 | 61 | 273 | 1.7 | 4.3 | 0.00 | 0.00 | 0.00 | 58 | 1008.8 |
| 20260502202328 | 61 | 290 | 0.9 | 1.7 | 0.00 | 0.00 | 0.00 | 58 | 1008.8 |
| 20260502201849 | 61 | 318 | 0.0 | 2.6 | 0.00 | 0.00 | 0.00 | 57 | 1008.8 |
| 20260502201329 | 61 | 256 | 0.9 | 5.2 | 0.00 | 0.00 | 0.00 | 57 | 1008.8 |
| 20260502200849 | 62 | 259 | 0.9 | 5.2 | 0.00 | 0.00 | 0.00 | 57 | 1008.8 |
| 20260502200329 | 62 | 276 | 0.9 | 6.1 | 0.00 | 0.00 | 0.00 | 57 | 1008.8 |
| 20260502195829 | 62 | 273 | 1.7 | 6.1 | 0.00 | 0.00 | 0.00 | 56 | 1008.9 |
| 20260502195349 | 62 | 273 | 1.7 | 7.0 | 0.00 | 0.00 | 0.00 | 56 | 1008.9 |
| 20260502194829 | 62 | 255 | 3.5 | 7.0 | 0.00 | 0.00 | 0.00 | 55 | 1009.0 |
| 20260502194330 | 63 | 289 | 1.7 | 7.0 | 0.00 | 0.00 | 0.00 | 55 | 1009.0 |
| 20260502193831 | 63 | 299 | 1.7 | 7.0 | 0.00 | 0.00 | 0.00 | 55 | 1009.0 |
| 20260502193331 | 63 | 283 | 2.6 | 7.0 | 0.00 | 0.00 | 0.00 | 55 | 1009.0 |
| 20260502192839 | 63 | 265 | 3.5 | 7.8 | 0.00 | 0.00 | 0.00 | 55 | 1009.0 |
| 20260502192328 | 63 | 276 | 2.6 | 13.0 | 0.00 | 0.00 | 0.00 | 55 | 1008.9 |
| 20260502191829 | 63 | 275 | 4.3 | 13.0 | 0.00 | 0.00 | 0.00 | 55 | 1008.9 |
| 20260502191329 | 63 | 288 | 2.6 | 7.0 | 0.00 | 0.00 | 0.00 | 55 | 1008.8 |
| 20260502190829 | 64 | 287 | 3.5 | 7.8 | 0.00 | 0.00 | 0.00 | 55 | 1008.8 |
| 20260502190329 | 64 | 314 | 3.5 | 10.4 | 0.00 | 0.00 | 0.00 | 54 | 1008.8 |
| 20260502185829 | 64 | 275 | 3.5 | 10.4 | 0.00 | 0.00 | 0.00 | 54 | 1008.8 |
| 20260502185330 | 64 | 282 | 4.3 | 8.7 | 0.00 | 0.00 | 0.00 | 53 | 1008.7 |
| 20260502184851 | 65 | 289 | 5.2 | 9.6 | 0.00 | 0.00 | 0.00 | 53 | 1008.7 |
| 20260502184330 | 65 | 284 | 3.5 | 9.6 | 0.00 | 0.00 | 0.00 | 52 | 1008.7 |
| 20260502183830 | 65 | 285 | 3.5 | 9.6 | 0.00 | 0.00 | 0.00 | 51 | 1008.7 |
| 20260502183331 | 65 | 301 | 4.3 | 7.8 | 0.00 | 0.00 | 0.00 | 52 | 1008.7 |
| 20260502182831 | 65 | 286 | 2.6 | 8.7 | 0.00 | 0.00 | 0.00 | 51 | 1008.7 |
| 20260502182331 | 65 | 281 | 4.3 | 8.7 | 0.00 | 0.00 | 0.00 | 50 | 1008.7 |
| 20260502181831 | 66 | 275 | 3.5 | 7.8 | 0.00 | 0.00 | 0.00 | 50 | 1008.7 |
| 20260502181330 | 66 | 288 | 3.5 | 8.7 | 0.00 | 0.00 | 0.00 | 49 | 1008.7 |
| 20260502180829 | 66 | 273 | 4.3 | 12.2 | 0.00 | 0.00 | 0.00 | 49 | 1008.7 |
| 20260502180329 | 66 | 277 | 5.2 | 12.2 | 0.00 | 0.00 | 0.00 | 48 | 1008.7 |
| 20260502170335 | 69 | 310 | 8.7 | 14.8 | 0.00 | 0.00 | 0.00 | 42 | 1008.6 |
| 20260502164347 | 70 | 286 | 7.8 | 16.5 | 0.00 | 0.00 | 0.00 | 40 | 1008.8 |
| 20260502163824 | 70 | 209 | 7.8 | 16.5 | 0.00 | 0.00 | 0.00 | 40 | 1008.7 |
| 20260502163346 | 71 | 269 | 10.4 | 16.5 | 0.00 | 0.00 | 0.00 | 40 | 1008.7 |
| 20260502162824 | 71 | 313 | 7.8 | 13.9 | 0.00 | 0.00 | 0.00 | 39 | 1008.7 |
| 20260502162352 | 72 | 284 | 6.1 | 13.0 | 0.00 | 0.00 | 0.00 | 40 | 1008.7 |
| 20260502161851 | 72 | 271 | 6.1 | 13.9 | 0.00 | 0.00 | 0.00 | 38 | 1008.7 |
| 20260502161359 | 72 | 279 | 7.8 | 13.9 | 0.00 | 0.00 | 0.00 | 38 | 1008.7 |
| 20260502160828 | 72 | 288 | 6.1 | 12.2 | 0.00 | 0.00 | 0.00 | 39 | 1008.7 |
| 20260502160328 | 72 | 283 | 7.8 | 12.2 | 0.00 | 0.00 | 0.00 | 37 | 1008.7 |
| 20260502151829 | 74 | 299 | 7.0 | 13.9 | 0.00 | 0.00 | 0.00 | 38 | 1009.1 |
| 20260502151328 | 74 | 280 | 7.0 | 12.2 | 0.00 | 0.00 | 0.00 | 37 | 1009.2 |
| 20260502150829 | 74 | 303 | 7.0 | 14.8 | 0.00 | 0.00 | 0.00 | 37 | 1009.2 |
| 20260502150329 | 74 | 277 | 8.7 | 14.8 | 0.00 | 0.00 | 0.00 | 36 | 1009.4 |
| 20260502130326 | 77 | 275 | 5.2 | 13.9 | 0.00 | 0.00 | 0.00 | 33 | 1010.2 |
| 20260502123331 | 76 | 42 | 4.3 | 19.1 | 0.00 | 0.00 | 0.00 | 34 | 1010.6 |
| 20260502122852 | 77 | 201 | 3.5 | 10.4 | 0.00 | 0.00 | 0.00 | 34 | 1010.7 |
| 20260502122329 | 77 | 294 | 4.3 | 17.4 | 0.00 | 0.00 | 0.00 | 34 | 1010.8 |
| 20260502121851 | 76 | 79 | 5.2 | 17.4 | 0.00 | 0.00 | 0.00 | 34 | 1010.9 |
| 20260502121330 | 76 | 203 | 4.3 | 9.6 | 0.00 | 0.00 | 0.00 | 37 | 1010.8 |
| 20260502120858 | 76 | 289 | 3.5 | 10.4 | 0.00 | 0.00 | 0.00 | 36 | 1011.0 |
| 20260502120324 | 76 | 257 | 4.3 | 9.6 | 0.00 | 0.00 | 0.00 | 37 | 1011.1 |
| 20260502115832 | 75 | 304 | 3.5 | 13.9 | 0.00 | 0.00 | 0.00 | 36 | 1011.2 |
| 20260502115339 | 75 | 5 | 5.2 | 13.9 | 0.00 | 0.00 | 0.00 | 35 | 1011.3 |
| 20260502114828 | 75 | 282 | 4.3 | 13.9 | 0.00 | 0.00 | 0.00 | 38 | 1011.3 |
| 20260502114350 | 75 | 55 | 6.1 | 14.8 | 0.00 | 0.00 | 0.00 | 37 | 1011.4 |
| 20260502113828 | 75 | 160 | 5.2 | 12.2 | 0.00 | 0.00 | 0.00 | 37 | 1011.5 |
| 20260502113329 | 75 | 263 | 4.3 | 13.0 | 0.00 | 0.00 | 0.00 | 38 | 1011.5 |
| 20260502112829 | 75 | 297 | 2.6 | 13.0 | 0.00 | 0.00 | 0.00 | 41 | 1011.6 |
| 20260502112330 | 75 | 202 | 3.5 | 13.9 | 0.00 | 0.00 | 0.00 | 38 | 1011.8 |
| 20260502111830 | 74 | 309 | 3.5 | 13.9 | 0.00 | 0.00 | 0.00 | 39 | 1011.9 |
| 20260502111331 | 74 | 304 | 4.3 | 12.2 | 0.00 | 0.00 | 0.00 | 40 | 1012.0 |
| 20260502110851 | 74 | 27 | 3.5 | 18.2 | 0.00 | 0.00 | 0.00 | 39 | 1012.4 |
| 20260502110350 | 74 | 202 | 7.0 | 18.2 | 0.00 | 0.00 | 0.00 | 39 | 1012.2 |
| 20260502105828 | 75 | 194 | 5.2 | 12.2 | 0.00 | 0.00 | 0.00 | 39 | 1012.3 |
| 20260502105330 | 75 | 194 | 3.5 | 13.0 | 0.00 | 0.00 | 0.00 | 38 | 1012.4 |
| 20260502104851 | 75 | 284 | 1.7 | 13.0 | 0.00 | 0.00 | 0.00 | 41 | 1012.5 |
| 20260502104330 | 75 | 220 | 5.2 | 13.0 | 0.00 | 0.00 | 0.00 | 39 | 1012.5 |
| 20260502103900 | 75 | 307 | 1.7 | 8.7 | 0.00 | 0.00 | 0.00 | 40 | 1012.6 |
| 20260502103329 | 75 | 312 | 2.6 | 9.6 | 0.00 | 0.00 | 0.00 | 39 | 1012.6 |
| 20260502102837 | 74 | 287 | 2.6 | 10.4 | 0.00 | 0.00 | 0.00 | 38 | 1012.7 |
| 20260502102326 | 74 | 222 | 3.5 | 10.4 | 0.00 | 0.00 | 0.00 | 40 | 1012.7 |
| 20260502101853 | 73 | 156 | 2.6 | 13.9 | 0.00 | 0.00 | 0.00 | 41 | 1012.9 |
| 20260502101401 | 73 | 205 | 3.5 | 13.9 | 0.00 | 0.00 | 0.00 | 41 | 1013.0 |
| 20260502100829 | 72 | 302 | 3.5 | 10.4 | 0.00 | 0.00 | 0.00 | 41 | 1013.1 |
| 20260502100337 | 72 | 318 | 3.5 | 11.3 | 0.00 | 0.00 | 0.00 | 41 | 1013.1 |
| 20260502091352 | 71 | 285 | 3.5 | 8.7 | 0.00 | 0.00 | 0.00 | 40 | 1013.5 |
| 20260502090848 | 71 | 246 | 2.6 | 12.2 | 0.00 | 0.00 | 0.00 | 39 | 1013.8 |
| 20260502090336 | 71 | 213 | 3.5 | 12.2 | 0.00 | 0.00 | 0.00 | 40 | 1013.8 |
| 20260502071330 | 64 | 329 | 3.5 | 7.8 | 0.00 | 0.00 | 0.00 | 42 | 1015.0 |
| 20260502070831 | 64 | 296 | 1.7 | 10.4 | 0.00 | 0.00 | 0.00 | 43 | 1015.0 |
| 20260502070331 | 63 | 298 | 2.6 | 10.4 | 0.00 | 0.00 | 0.00 | 43 | 1015.0 |
| 20260502065831 | 62 | 139 | 4.3 | 8.7 | 0.00 | 0.00 | 0.00 | 43 | 1015.0 |
| 20260502065340 | 62 | 286 | 3.5 | 8.7 | 0.00 | 0.00 | 0.00 | 42 | 1015.1 |
| 20260502064829 | 62 | 276 | 3.5 | 10.4 | 0.00 | 0.00 | 0.00 | 43 | 1015.0 |
| 20260502064350 | 61 | 292 | 5.2 | 10.4 | 0.00 | 0.00 | 0.00 | 42 | 1015.0 |
| 20260502063830 | 61 | 225 | 3.5 | 10.4 | 0.00 | 0.00 | 0.00 | 43 | 1015.1 |
| 20260502063331 | 61 | 271 | 2.6 | 10.4 | 0.00 | 0.00 | 0.00 | 43 | 1015.1 |
| 20260502062831 | 60 | 278 | 3.5 | 10.4 | 0.00 | 0.00 | 0.00 | 43 | 1015.1 |
| 20260502062352 | 60 | 288 | 2.6 | 10.4 | 0.00 | 0.00 | 0.00 | 44 | 1015.2 |
| 20260502061851 | 60 | 286 | 2.6 | 7.8 | 0.00 | 0.00 | 0.00 | 44 | 1015.2 |
| 20260502061339 | 59 | 121 | 2.6 | 11.3 | 0.00 | 0.00 | 0.00 | 47 | 1015.2 |
| 20260502060828 | 59 | 288 | 3.5 | 11.3 | 0.00 | 0.00 | 0.00 | 45 | 1015.3 |
| 20260502060328 | 58 | 284 | 3.5 | 8.7 | 0.00 | 0.00 | 0.00 | 47 | 1015.3 |
| 20260502055829 | 58 | 360 | 2.6 | 6.1 | 0.00 | 0.00 | 0.00 | 48 | 1015.4 |
| 20260502055329 | 58 | 318 | 1.7 | 8.7 | 0.00 | 0.00 | 0.00 | 48 | 1015.4 |
| 20260502054830 | 57 | 288 | 2.6 | 7.0 | 0.00 | 0.00 | 0.00 | 49 | 1015.5 |
| 20260502054339 | 57 | 314 | 2.6 | 9.6 | 0.00 | 0.00 | 0.00 | 50 | 1015.4 |
| 20260502053828 | 57 | 317 | 2.6 | 11.3 | 0.00 | 0.00 | 0.00 | 50 | 1015.5 |
| 20260502053329 | 57 | 240 | 3.5 | 11.3 | 0.00 | 0.00 | 0.00 | 49 | 1015.5 |
| 20260502052849 | 56 | 287 | 2.6 | 6.1 | 0.00 | 0.00 | 0.00 | 52 | 1015.4 |
| 20260502052328 | 56 | 245 | 1.7 | 7.8 | 0.00 | 0.00 | 0.00 | 52 | 1015.5 |
| 20260502051828 | 56 | 315 | 2.6 | 7.8 | 0.00 | 0.00 | 0.00 | 52 | 1015.4 |
| 20260502051328 | 56 | 290 | 1.7 | 6.1 | 0.00 | 0.00 | 0.00 | 53 | 1015.4 |
| 20260502050830 | 56 | 315 | 1.7 | 5.2 | 0.00 | 0.00 | 0.00 | 54 | 1015.4 |
| 20260502050330 | 55 | 275 | 1.7 | 6.1 | 0.00 | 0.00 | 0.00 | 53 | 1015.5 |
| 20260502045900 | 55 | 295 | 1.7 | 7.8 | 0.00 | 0.00 | 0.00 | 53 | 1015.5 |
| 20260502045327 | 55 | 269 | 2.6 | 10.4 | 0.00 | 0.00 | 0.00 | 53 | 1015.5 |
| 20260502044857 | 55 | 269 | 1.7 | 10.4 | 0.00 | 0.00 | 0.00 | 54 | 1015.6 |
| 20260502044325 | 54 | 275 | 2.6 | 9.6 | 0.00 | 0.00 | 0.00 | 54 | 1015.5 |
| 20260502043852 | 54 | 294 | 2.6 | 7.8 | 0.00 | 0.00 | 0.00 | 55 | 1015.6 |
| 20260502043332 | 54 | 309 | 1.7 | 7.0 | 0.00 | 0.00 | 0.00 | 55 | 1015.7 |
| 20260502042832 | 54 | 168 | 1.7 | 6.1 | 0.00 | 0.00 | 0.00 | 56 | 1015.7 |
| 20260502042401 | 54 | 281 | 1.7 | 5.2 | 0.00 | 0.00 | 0.00 | 55 | 1015.7 |
| 20260502041829 | 53 | 331 | 1.7 | 7.8 | 0.00 | 0.00 | 0.00 | 55 | 1015.8 |
| 20260502041329 | 53 | 189 | 0.9 | 7.8 | 0.00 | 0.00 | 0.00 | 55 | 1015.8 |
| 20260502040831 | 53 | 265 | 1.7 | 4.3 | 0.00 | 0.00 | 0.00 | 55 | 1015.8 |
| 20260502040339 | 53 | 172 | 1.7 | 7.0 | 0.00 | 0.00 | 0.00 | 55 | 1015.9 |
| 20260502035828 | 53 | 290 | 2.6 | 7.0 | 0.00 | 0.00 | 0.00 | 54 | 1015.9 |
| 20260502035330 | 53 | 167 | 1.7 | 7.0 | 0.00 | 0.00 | 0.00 | 55 | 1015.9 |
| 20260502034839 | 53 | 275 | 1.7 | 7.0 | 0.00 | 0.00 | 0.00 | 54 | 1015.9 |
| 20260502034328 | 53 | 329 | 1.7 | 6.1 | 0.00 | 0.00 | 0.00 | 55 | 1016.0 |
| 20260502033836 | 53 | 355 | 1.7 | 7.8 | 0.00 | 0.00 | 0.00 | 55 | 1016.0 |
| 20260502033325 | 53 | 254 | 2.6 | 7.8 | 0.00 | 0.00 | 0.00 | 54 | 1016.1 |
| 20260502032851 | 53 | 281 | 2.6 | 7.8 | 0.00 | 0.00 | 0.00 | 54 | 1016.2 |
| 20260502032331 | 53 | 298 | 1.7 | 8.7 | 0.00 | 0.00 | 0.00 | 54 | 1016.1 |
| 20260502031839 | 53 | 275 | 1.7 | 8.7 | 0.00 | 0.00 | 0.00 | 54 | 1016.2 |
| 20260502031328 | 53 | 277 | 1.7 | 7.8 | 0.00 | 0.00 | 0.00 | 54 | 1016.2 |
| 20260502030828 | 54 | 264 | 1.7 | 7.8 | 0.00 | 0.00 | 0.00 | 53 | 1016.3 |
| 20260502030329 | 54 | 290 | 1.7 | 7.8 | 0.00 | 0.00 | 0.00 | 53 | 1016.4 |
| 20260502025829 | 54 | 267 | 0.9 | 9.6 | 0.00 | 0.00 | 0.00 | 53 | 1016.3 |
| 20260502025350 | 54 | 219 | 2.6 | 9.6 | 0.00 | 0.00 | 0.00 | 53 | 1016.4 |
| 20260502024840 | 54 | 254 | 2.6 | 7.8 | 0.00 | 0.00 | 0.00 | 53 | 1016.4 |
| 20260502024328 | 54 | 310 | 2.6 | 7.8 | 0.00 | 0.00 | 0.00 | 53 | 1016.5 |
| 20260502023828 | 54 | 256 | 3.5 | 13.0 | 0.00 | 0.00 | 0.00 | 53 | 1016.5 |
| 20260502023329 | 54 | 295 | 3.5 | 13.0 | 0.00 | 0.00 | 0.00 | 53 | 1016.5 |
| 20260502022829 | 55 | 211 | 3.5 | 8.7 | 0.00 | 0.00 | 0.00 | 53 | 1016.5 |
| 20260502022339 | 55 | 282 | 3.5 | 13.9 | 0.00 | 0.00 | 0.00 | 53 | 1016.5 |
| 20260502021828 | 55 | 264 | 5.2 | 13.9 | 0.00 | 0.00 | 0.00 | 53 | 1016.6 |
| 20260502021328 | 55 | 255 | 3.5 | 9.6 | 0.00 | 0.00 | 0.00 | 54 | 1016.6 |
| 20260502020829 | 54 | 204 | 4.3 | 10.4 | 0.00 | 0.00 | 0.00 | 54 | 1016.6 |
| 20260502020330 | 54 | 309 | 3.5 | 10.4 | 0.00 | 0.00 | 0.00 | 55 | 1016.7 |
| 20260502015829 | 54 | 254 | 3.5 | 9.6 | 0.00 | 0.00 | 0.00 | 55 | 1016.8 |
| 20260502015329 | 54 | 235 | 2.6 | 9.6 | 0.00 | 0.00 | 0.00 | 55 | 1016.8 |
| 20260502014829 | 54 | 284 | 2.6 | 8.7 | 0.00 | 0.00 | 0.00 | 56 | 1016.9 |
| 20260502014329 | 54 | 298 | 3.5 | 8.7 | 0.00 | 0.00 | 0.00 | 55 | 1016.9 |
| 20260502013829 | 54 | 271 | 3.5 | 10.4 | 0.00 | 0.00 | 0.00 | 56 | 1017.0 |